Tracking 28790 objects as of 18-Apr-2024
HD Live streaming from Space Station
objects crossing your sky now

CZ-6A DEB

Track CZ-6A DEB now!
10-day predictions


NORAD ID: 54983
Int'l Code: 2022-151TY
Perigee: 836.9 km
Apogee: 1,226.3 km
Inclination: 98.9 °
Period: 105.6 minutes
Semi major axis: 7402 km
RCS: Unknown
Launch date: November 11, 2022
Source: People's Republic of China (PRC)
Launch site: Taiyaun Space Center, China (TSC)

Note: This is SATELLITE DEBRIS
Your satellite tracking list
Your tracking list is empty




NASA's NSSDC Master Catalog

Two Line Element Set (TLE):
1 54983U 22151TY  24107.81942204  .00000152  00000-0  19051-3 0  9991
2 54983  98.8539  74.4801 0263018 145.4980 216.3554 13.63089159 69879
Source of the keplerian elements: AFSPC